MURMANSK current weather conditions

sailwx.info

Wind from 300 at 11 knots

Air temperature -6.0° C
Visibility: greater than 5.4 NM
Dewpoint -10.0° C
Present weather: Light snow showers. Light low drifting snow.

Last reported at 2020-Jan-22 11:30 UTC.
Time now 2020-Jan-22 13:26 UTC

Location: N 68°47' E 032°45'.
View on Google Maps.

See reports from other nearby stations

  
Tides and Currents Weather Stations Pressure Air Temp Water Temp Dewpoint Dewpoint Depression Visibility Wind Speed Wind Dir Waves Ship Positions
date/time (UTC)wind fromknots sea level pressurealtimeterstation pressurevisibilityair tempwater tempwave heightnotes
2020-Jan-22 13:00 280 5 5.4-7.0 Light snow showers.
2020-Jan-22 12:30 290 7 4.9-7.0 Light snow showers.
2020-Jan-22 12:00 290 9 5.4-7.0 Light snow showers. Light low drifting snow.
2020-Jan-22 11:30 300 11 5.4-6.0 Light snow showers. Light low drifting snow.
2020-Jan-22 11:00 300 11 4.9-6.0 Light snow showers. Blowing snow.
2020-Jan-22 10:30 300 11 gusting 21 2.2-6.0 Light snow showers. Blowing snow.
2020-Jan-22 10:00 290 9 gusting 19 5.4-6.0
2020-Jan-22 09:30 290 9 4.9-6.0 Light snow showers. Light low drifting snow.
2020-Jan-22 09:00 300 9 5.4-6.0 Light snow showers. Light low drifting snow.
2020-Jan-22 08:30 310 11 5.4-6.0 Light snow showers. Blowing snow.
2020-Jan-22 08:00 300 11 4.3-6.0 Light snow showers. Light low drifting snow.
2020-Jan-22 07:30 300 9 3.8-6.0 Light snow showers.
2020-Jan-22 07:00 310 11 4.9-5.0 Light snow showers. Light low drifting snow.
2020-Jan-22 06:30 310 9 gusting 19 4.9-5.0 Light snow showers.
2020-Jan-22 06:00 310 9 3.8-5.0 Light snow showers.
2020-Jan-22 05:30 300 7 1.8-5.0 Snow showers.
2020-Jan-22 05:00 320 9 0.8-5.0 Snow showers.
2020-Jan-22 04:30 320 7 3.8-4.0 Light snow showers.
2020-Jan-22 04:00 310 7 5.4-4.0 Light snow showers.
2020-Jan-22 03:30 320 9 5.4-4.0 Light snow showers.
2020-Jan-22 03:00 340 11 5.4-4.0 Light snow showers.
2020-Jan-22 02:30 330 9 5.4-3.0 Light snow showers.
2020-Jan-22 02:00 310 5 5.4-4.0 Light snow showers.
2020-Jan-22 01:30 330 7 5.4-3.0 Light snow showers.
2020-Jan-22 01:00 330 9 5.4-3.0 Light snow showers.
2020-Jan-22 00:30 320 5 4.9-3.0 Light snow showers.
2020-Jan-22 00:00 310 3 5.4-3.0
2020-Jan-21 23:30 300 3 5.4-4.0 Light snow showers.
2020-Jan-21 23:00 300 5 5.4-4.0 Light snow showers.
2020-Jan-21 22:30 290 7 3.8-5.0 Light snow showers.
2020-Jan-21 22:00 290 5 5.4-6.0
2020-Jan-21 21:30 300 5 5.4-6.0
2020-Jan-21 21:00 260 5 5.4-5.0
2020-Jan-21 20:30 260 7 5.4-5.0
2020-Jan-21 20:00 260 5 5.4-5.0
2020-Jan-21 19:30 250 5 5.4-5.0
2020-Jan-21 19:00 250 5 5.4-5.0
2020-Jan-21 18:30 240 5 5.4-5.0
2020-Jan-21 18:00 250 5 5.4-5.0
2020-Jan-21 17:30 250 7 5.4-4.0
2020-Jan-21 17:00 250 7 5.4-5.0
2020-Jan-21 16:30 250 5 gusting 15 5.4-4.0
2020-Jan-21 16:00 240 5 5.4-4.0
2020-Jan-21 15:30 240 7 5.4-4.0
2020-Jan-21 15:00 270 3 5.4-4.0
2020-Jan-21 14:30 250 5 5.4-3.0
2020-Jan-21 14:00 270 3 5.4-3.0
2020-Jan-21 13:30 280 5 5.4-3.0
2020-Jan-21 13:00 270 5 5.4-2.0
2020-Jan-21 12:30 260 7 5.4-2.0
2020-Jan-21 12:00 260 5 5.4-2.0
2020-Jan-21 11:30 270 7 5.4-3.0
2020-Jan-21 11:00 260 5 4.9-2.0 Light snow showers.
2020-Jan-21 10:30 250 7 4.3-3.0 Light snow showers.
2020-Jan-21 10:00 250 7 4.3-3.0 Light snow showers.
2020-Jan-21 09:30 240 9 5.4-2.0 Light snow showers.
2020-Jan-21 09:00 250 7 5.4-3.0
2020-Jan-21 08:30 250 5 5.4-3.0
2020-Jan-21 08:00 260 3 5.4-3.0
2020-Jan-21 07:30 240 3 5.4-3.0
2020-Jan-21 07:00 250 9 5.4-3.0
2020-Jan-21 06:30 250 7 5.4-3.0
2020-Jan-21 06:00 190 1 5.4-3.0
2020-Jan-21 05:30 260 3 5.4-2.0
2020-Jan-21 05:00 270 5 5.4-2.0
2020-Jan-21 04:30 290 3 5.4-1.0
2020-Jan-21 04:00 270 5 5.4-1.0
2020-Jan-21 03:30 280 5 5.4-0.0
2020-Jan-21 03:00 290 3 5.4-0.0 Light snow showers.
2020-Jan-21 02:30 280 5 3.8-1.0 Light snow showers.
2020-Jan-21 02:00 280 5 1.3-1.0 Light snow showers.
2020-Jan-21 01:30 310 1 1.1-2.0 Snow showers.
2020-Jan-21 01:00 360 1 2.7-2.0 Light snow showers.
2020-Jan-21 00:30 240 3 3.8-2.0 Light snow showers.
2020-Jan-21 00:00 220 3 4.9-1.0
2020-Jan-20 23:30 220 3 5.4-1.0
2020-Jan-20 23:00 200 3 5.4-1.0
2020-Jan-20 22:30 180 3 5.4-2.0
2020-Jan-20 22:00 190 3 5.4-2.0
2020-Jan-20 21:30 180 3 5.4-2.0
2020-Jan-20 21:00 190 3 5.4-2.0
2020-Jan-20 20:30 200 3 5.4-2.0
2020-Jan-20 20:00 230 3 5.4-2.0
2020-Jan-20 19:30 230 5 5.4-2.0
2020-Jan-20 19:00 250 7 5.4-2.0
2020-Jan-20 18:30 250 7 5.4-2.0
2020-Jan-20 18:00 240 5 5.4-3.0
2020-Jan-20 17:30 260 5 5.4-3.0
2020-Jan-20 17:00 240 5 5.4-3.0 Light snow showers.
2020-Jan-20 16:30 210 5 5.4-4.0 Light snow showers.
2020-Jan-20 16:00 200 5 5.4-4.0 Light snow showers.
2020-Jan-20 15:30 180 3 4.9-4.0 Light snow showers.
2020-Jan-20 15:00 170 3 5.4-4.0 Light snow showers.
2020-Jan-20 14:30 180 3 5.4-5.0
2020-Jan-20 14:00 160 3 5.4-5.0 Light snow showers.
2020-Jan-20 13:30 180 1 5.4-5.0
2020-Jan-20 13:00 190 3 5.4-5.0